TimeAEST,TemperatureF,Dew PointF,Humidity,Sea Level PressureIn,VisibilityMPH,Wind Direction,Wind SpeedMPH,Gust SpeedMPH,PrecipitationIn,Events,Conditions,WindDirDegrees,DateUTC
12:00 AM,78,73,80,29.80,,SSE,9.2,,,,Overcast,160,2012-12-23 14:00:00
12:00 AM,78.8,73.4,83,29.80,6.2,SSE,9.2,-,N/A,,Mostly Cloudy,160,2012-12-23 14:00:00
12:30 AM,78.8,71.6,78,29.77,6.2,SSE,8.1,-,N/A,,Mostly Cloudy,150,2012-12-23 14:30:00
1:00 AM,79,74,79,29.79,,South,9.2,,,,,170,2012-12-23 15:00:00
1:00 AM,78.8,73.4,83,29.77,6.2,South,9.2,-,N/A,,Mostly Cloudy,170,2012-12-23 15:00:00
1:30 AM,78.8,73.4,83,29.77,6.2,SSE,9.2,-,N/A,,Mostly Cloudy,150,2012-12-23 15:30:00
2:00 AM,78.8,73.4,83,29.77,5.0,SSE,9.2,-,N/A,Rain,Light Rain Showers,160,2012-12-23 16:00:00
2:30 AM,77.0,73.4,89,29.74,6.2,South,9.2,-,N/A,,Mostly Cloudy,170,2012-12-23 16:30:00
3:00 AM,79,74,79,29.75,,South,10.4,,,,,180,2012-12-23 17:00:00
3:00 AM,78.8,73.4,83,29.74,5.0,South,10.4,-,N/A,,Mostly Cloudy,180,2012-12-23 17:00:00
3:30 AM,78.8,73.4,83,29.74,6.2,South,9.2,-,N/A,,Scattered Clouds,170,2012-12-23 17:30:00
4:00 AM,79,73,78,29.77,,South,6.9,,,,,180,2012-12-23 18:00:00
4:00 AM,78.8,73.4,83,29.74,6.2,South,6.9,-,N/A,,Scattered Clouds,180,2012-12-23 18:00:00
4:30 AM,78.8,73.4,83,29.74,6.2,South,5.8,-,N/A,,Scattered Clouds,190,2012-12-23 18:30:00
5:00 AM,78.8,73.4,83,29.77,5.0,ESE,8.1,-,N/A,Rain,Light Rain Showers,110,2012-12-23 19:00:00
5:06 AM,77.0,75.2,94,29.77,2.5,East,9.2,-,N/A,Rain,Rain Showers,100,2012-12-23 19:06:00
5:30 AM,77.0,75.2,94,29.77,5.0,South,6.9,-,N/A,Rain,Light Rain Showers,170,2012-12-23 19:30:00
5:39 AM,77.0,73.4,89,29.77,5.0,SSE,9.2,-,N/A,Rain,Light Rain Showers,150,2012-12-23 19:39:00
6:00 AM,76,74,91,29.80,7,South,9.2,,,,Mostly Cloudy,170,2012-12-23 20:00:00
6:00 AM,75.2,73.4,94,29.80,6.2,South,9.2,-,N/A,,Mostly Cloudy,170,2012-12-23 20:00:00
6:30 AM,77.0,73.4,89,29.80,6.2,South,10.4,-,N/A,,Scattered Clouds,180,2012-12-23 20:30:00
7:00 AM,78,74,84,29.82,,SE,6.9,,,,,130,2012-12-23 21:00:00
7:00 AM,78.8,73.4,83,29.80,6.2,SE,6.9,-,N/A,,Scattered Clouds,130,2012-12-23 21:00:00
7:30 AM,78.8,73.4,83,29.83,5.0,SW,5.8,-,N/A,,Mostly Cloudy,220,2012-12-23 21:30:00
8:00 AM,80.6,75.2,84,29.83,6.2,SSE,6.9,-,N/A,,Scattered Clouds,160,2012-12-23 22:00:00
8:30 AM,80.6,73.4,79,29.83,6.2,South,9.2,-,N/A,,Scattered Clouds,180,2012-12-23 22:30:00
9:00 AM,83,74,67,29.84,9,South,9.2,,,,Partly Cloudy,180,2012-12-23 23:00:00
9:00 AM,84.2,73.4,70,29.83,6.2,South,9.2,-,N/A,,Partly Cloudy,180,2012-12-23 23:00:00
9:30 AM,86.0,75.2,70,29.83,6.2,South,8.1,-,N/A,,Partly Cloudy,170,2012-12-23 23:30:00
10:00 AM,86,73,58,29.85,,SE,5.8,,,,,140,2012-12-24 00:00:00
10:00 AM,86.0,73.4,66,29.83,6.2,SE,5.8,-,N/A,,Scattered Clouds,140,2012-12-24 00:00:00
10:30 AM,84.2,75.2,74,29.83,6.2,ESE,8.1,-,N/A,Rain,Light Rain Showers,110,2012-12-24 00:30:00
11:00 AM,87.8,75.2,66,29.83,6.2,ENE,5.8,-,N/A,,Scattered Clouds,60,2012-12-24 01:00:00
11:30 AM,86.0,75.2,70,29.83,6.2,ENE,10.4,-,N/A,,Scattered Clouds,70,2012-12-24 01:30:00
12:00 PM,89,73,50,29.82,9,ENE,11.5,,,,Partly Cloudy,70,2012-12-24 02:00:00
12:00 PM,89.6,73.4,59,29.80,6.2,ENE,11.5,-,N/A,,Scattered Clouds,70,2012-12-24 02:00:00
12:30 PM,89.6,75.2,62,29.80,6.2,ENE,12.7,-,N/A,,Partly Cloudy,60,2012-12-24 02:30:00
1:00 PM,89,75,54,29.81,,ENE,12.7,,,,,60,2012-12-24 03:00:00
1:00 PM,89.6,75.2,62,29.80,6.2,ENE,12.7,-,N/A,,Mostly Cloudy,60,2012-12-24 03:00:00
1:30 PM,87.8,73.4,62,29.77,6.2,NE,11.5,-,N/A,,Mostly Cloudy,50,2012-12-24 03:30:00
2:00 PM,86.0,75.2,70,29.77,6.2,ENE,11.5,-,N/A,,Scattered Clouds,60,2012-12-24 04:00:00
2:30 PM,87.8,75.2,66,29.77,6.2,ENE,15.0,-,N/A,,Scattered Clouds,60,2012-12-24 04:30:00
3:00 PM,86,75,64,29.78,16,ENE,13.8,,,,Partly Cloudy,60,2012-12-24 05:00:00
3:00 PM,86.0,75.2,70,29.77,6.2,ENE,13.8,-,N/A,,Mostly Cloudy,60,2012-12-24 05:00:00
3:30 PM,86.0,75.2,70,29.77,6.2,ENE,12.7,-,N/A,,Mostly Cloudy,70,2012-12-24 05:30:00
4:00 PM,87,74,59,29.78,,ENE,15.0,,,,,60,2012-12-24 06:00:00
4:00 PM,87.8,75.2,66,29.77,6.2,ENE,15.0,-,N/A,,Scattered Clouds,60,2012-12-24 06:00:00
4:30 PM,86.0,73.4,66,29.77,6.2,ENE,11.5,-,N/A,,Mostly Cloudy,60,2012-12-24 06:30:00
5:00 PM,86.0,73.4,66,29.77,6.2,ENE,11.5,-,N/A,,Mostly Cloudy,70,2012-12-24 07:00:00
5:30 PM,84.2,73.4,70,29.80,6.2,ENE,10.4,-,N/A,,Mostly Cloudy,70,2012-12-24 07:30:00
6:00 PM,83,74,69,29.81,,ENE,9.2,,,,,60,2012-12-24 08:00:00
6:00 PM,84.2,75.2,74,29.80,6.2,ENE,9.2,-,N/A,,Mostly Cloudy,60,2012-12-24 08:00:00
6:30 PM,84.2,73.4,70,29.80,6.2,East,11.5,-,N/A,,Mostly Cloudy,90,2012-12-24 08:30:00
7:00 PM,83,73,64,29.82,,ENE,8.1,,,,,70,2012-12-24 09:00:00
7:00 PM,82.4,73.4,74,29.80,6.2,ENE,8.1,-,N/A,,Mostly Cloudy,70,2012-12-24 09:00:00
7:30 PM,82.4,73.4,74,29.83,6.2,ENE,6.9,-,N/A,,Mostly Cloudy,70,2012-12-24 09:30:00
8:00 PM,82.4,73.4,74,29.83,6.2,South,1.2,-,N/A,,Mostly Cloudy,170,2012-12-24 10:00:00
8:30 PM,82.4,73.4,74,29.83,6.2,South,5.8,-,N/A,,Mostly Cloudy,190,2012-12-24 10:30:00
9:00 PM,81,73,70,29.85,,South,8.1,,,,,170,2012-12-24 11:00:00
9:00 PM,80.6,73.4,79,29.83,5.0,South,8.1,-,N/A,,Mostly Cloudy,170,2012-12-24 11:00:00
9:16 PM,77.0,73.4,89,29.86,3.1,SSE,16.1,-,N/A,Rain,Rain Showers,160,2012-12-24 11:16:00
9:30 PM,77.0,73.4,89,29.86,5.0,South,9.2,-,N/A,Rain,Light Rain Showers,170,2012-12-24 11:30:00
10:00 PM,78,73,79,29.88,,South,6.9,,,,,170,2012-12-24 12:00:00
10:00 PM,77.0,73.4,89,29.86,6.2,South,6.9,-,N/A,,Mostly Cloudy,170,2012-12-24 12:00:00
10:30 PM,77.0,73.4,89,29.86,6.2,South,5.8,-,N/A,,Mostly Cloudy,180,2012-12-24 12:30:00
11:00 PM,77.0,71.6,83,29.86,6.2,SSE,8.1,-,N/A,,Mostly Cloudy,150,2012-12-24 13:00:00
11:30 PM,77.0,73.4,89,29.86,6.2,SSE,5.8,-,N/A,,Mostly Cloudy,150,2012-12-24 13:30:00